Regional Weather Roundup
Issued by NWS

Home | Current Version | Previous Version | Text Only | Print | Product List | Glossary Off
Versions: 1 2 3 4 5 6 7 8 9 10 11 12 13 14 15 16 17 18 19 20 21 22 23 24 25 26 27 28 29 30 31 32 33 34 35 36 37 38 39 40 41 42 43 44 45 46 47 48 49 50

415
ASUS44 KLIX 160910
RWRLA
LOUISIANA WEATHER ROUNDUP
NATIONAL WEATHER SERVICE NEW ORLEANS LA
400 AM CDT TUE SEP 16 2014

NOTE: "FAIR" INDICATES FEW OR NO CLOUDS BELOW 12,000 FEET WITH NO
      SIGNIFICANT WEATHER AND/OR OBSTRUCTIONS TO VISIBILITY.
      SKY/WX - SKY CONDITION AND SIGNIFICANT WEATHER.
      TMP - AIR TEMPERATURE.    DP   - DEWPOINT TEMPERATURE.
      RH  - RELATIVE HUMIDITY.  PRES - PRESSURE.
      HX  - HEAT INDEX.         WCI  - WIND CHILL INDEX.

*  THESE STATIONS ARE NOT NWS OR FAA STATIONS AND ARE NOT UNDER
   NWS QUALITY CONTROL.

LAZ040-048-061>063-065-066-069-161000-
SOUTHEAST LOUISIANA

CITY           SKY/WX    TMP DP  RH WIND       PRES   REMARKS
N.O. AUDUBON     N/A     79  76  91 MISG        N/A
N.O. INTL ARPT PTCLDY    77  74  90 CALM      30.05F
N.O. LAKEFRONT PTCLDY    81  76  84 W6        30.06F
N.O. DOWNTOWN* FAIR      81  72  74 CALM      30.06F
SLIDELL        CLEAR     74  72  93 CALM      30.05F
BATON ROUGE    PTCLDY    74  73  97 CALM      30.06F
BOOTHVILLE     LGT RAIN  79  73  82 NW9       30.05F
BELLE CHASSE   CLEAR     75  72  90 CALM      30.05F
BOGALUSA*      FAIR      75  72  89 CALM      30.08S FOG
GALLIANO*      NOT AVBL
NEW ROADS*     FAIR      74  73  98 CALM      30.06F
GONZALES*      FAIR      74  74 100 CALM      30.05F FOG
HAMMOND*       PTCLDY    75  72  88 CALM      30.07S
HOUMA*         CLEAR     75  72  90 CALM      30.06F
PORT FOURCHON* MOSUNNY   82  77  83 SW5       30.08F

$$

LAZ041-044-053-054-161000-
SOUTHWEST LOUISIANA

CITY           SKY/WX    TMP DP  RH WIND       PRES   REMARKS
LAKE CHARLES   MOCLDY    76  73  91 E3        30.05F
LAFAYETTE      PTCLDY    74  74 100 CALM      30.06F FOG
PATTERSON      CLEAR     75  73  94 NE3       30.08F
SALT POINT       N/A     80  77  90 CALM      30.05F
NEW IBERIA     CLEAR     75  73  93 CALM      30.07S
CHENAULT AIRPK PTCLDY    75  72  90 CALM      30.06F

$$

LAZ027-028-161000-
CENTRAL LOUISIANA

CITY           SKY/WX    TMP DP  RH WIND       PRES   REMARKS
FORT POLK      PTCLDY    75  72  90 NE5       30.07S
ALEXANDRIA INT CLOUDY    75  71  87 N3        30.06F
ALEXANDRIA     CLOUDY    76  71  85 NE3       30.08S

$$

LAZ001-002-161000-
NORTHWEST LOUISIANA

CITY           SKY/WX    TMP DP  RH WIND       PRES   REMARKS
SHREVEPORT     CLOUDY    74  69  85 NE3       30.10S
BARKSDALE AFB  CLOUDY    72  69  90 N2        30.11S
DTN SHREVEPORT CLOUDY    73  70  90 CALM      30.11R

$$

LAZ014-016-161000-
NORTHEAST LOUISIANA

CITY           SKY/WX    TMP DP  RH WIND       PRES   REMARKS
MONROE         CLOUDY    73  68  84 N6        30.10F
TALLULAH       CLEAR     72  67  84 N6        30.08F

$$




USA.gov is the U.S. government's official web portal to all federal, state and local government web resources and services.